sat.trackr.live / text

‹ back to catalog

STARLINK-31483

NORAD 59411 · 2024-064P

PAYLOAD ACTIVE UNKNOWN

§ Identity

Operator
Country
US
Launch date
2024-04-05
Launch site
AFETR
Launch vehicle
Mass (kg)
RCS (m²)

Purposes: comms

External: N2YO · Heavens-Above · Gunter

§ Orbital elements

Epoch: 2026-09-21T15:32:51.650592Z

Period
94.27 min
Inclination
43.0022°
Eccentricity
0.0000849
Mean motion
15.27582975 rev/d
Perigee alt
482.5 km
Apogee alt
483.6 km
Semi-major
6,861.2 km
B*
3.8355e-5
RAAN
29.6240°
Arg perigee
260.5485°
Mean anomaly
99.5271°
Rev number
13,919

§ Raw data

STARLINK-314831 59411U 24064P   26264.64782003  .00000794  00000+0  38355-4 0  99932 59411  43.0022  29.6240 0000849 260.5485  99.5271 15.27582975139194

JSON: /api/v1/satellites/59411 · /tle

For live sub-satellite position, see the globe view (requires WebGL).

§ Visibility from observer

Set your observer location to see the next 7 days of passes ≥ 10°. The values pass through the URL so the page stays shareable.

No JS? Fill the form by hand. The geolocation button needs JavaScript.